NKS080 KFLL-KEWR

Flight info

Callsign NKS080
Flight time N/A
Altitude 37000
Route FEALX2 ETECK GRUBR Y299 SEELO GARIC Q129 AARNN QUART PHLBO4
Aircraft A320/M-SDE3FGHIRWY/LB1

Departure

Time 2026-05-03 21:53
Airport Fort Lauderdale Hollywood International Airport (KFLL)

Arrival

Time N/A
Airport Newark Liberty International Airport (KEWR)
Time Latitude Longitude Altitude Speed Heading
2026-05-03 20:47 26.07344 -80.14268 19 ft 0 kts 263°
2026-05-03 20:59 26.07345 -80.14258 19 ft 3 kts 265°
2026-05-03 20:59 26.07346 -80.14235 19 ft 3 kts 274°
2026-05-03 20:59 26.07343 -80.14213 19 ft 3 kts 290°
2026-05-03 21:00 26.07335 -80.14196 21 ft 3 kts 333°
2026-05-03 21:00 26.07327 -80.14192 23 ft 1 kts
2026-05-03 21:00 26.07321 -80.14192 22 ft 0 kts
2026-05-03 21:10 26.07339 -80.14191 18 ft 6 kts
2026-05-03 21:10 26.07390 -80.14191 18 ft 9 kts
2026-05-03 21:11 26.07420 -80.14190 18 ft 0 kts 358°
2026-05-03 21:16 26.07431 -80.14191 18 ft 3 kts 359°
2026-05-03 21:16 26.07454 -80.14193 18 ft 4 kts 347°
2026-05-03 21:16 26.07482 -80.14222 18 ft 7 kts 299°
2026-05-03 21:16 26.07488 -80.14285 18 ft 9 kts 267°
2026-05-03 21:17 26.07488 -80.14367 18 ft 12 kts 270°
2026-05-03 21:17 26.07488 -80.14429 19 ft 12 kts 269°
2026-05-03 21:17 26.07488 -80.14565 20 ft 14 kts 270°
2026-05-03 21:17 26.07488 -80.14684 19 ft 17 kts 265°
2026-05-03 21:18 26.07489 -80.14831 15 ft 21 kts 270°
2026-05-03 21:18 26.07489 -80.14946 15 ft 12 kts 268°
2026-05-03 21:18 26.07489 -80.14987 15 ft 4 kts 271°
2026-05-03 21:18 26.07490 -80.15000 15 ft 1 kts 270°
2026-05-03 21:19 26.07490 -80.15005 15 ft 0 kts 270°
2026-05-03 21:26 26.07490 -80.15017 15 ft 8 kts 270°
2026-05-03 21:27 26.07488 -80.15114 14 ft 14 kts 270°
2026-05-03 21:27 26.07489 -80.15239 12 ft 18 kts 270°
2026-05-03 21:27 26.07489 -80.15393 11 ft 21 kts 274°
2026-05-03 21:27 26.07492 -80.15559 13 ft 22 kts 268°
2026-05-03 21:28 26.07493 -80.15731 14 ft 23 kts 270°
2026-05-03 21:28 26.07494 -80.15912 16 ft 24 kts 271°
2026-05-03 21:28 26.07495 -80.16009 18 ft 2 kts 270°
2026-05-03 21:28 26.07495 -80.16028 19 ft 3 kts 269°
2026-05-03 21:29 26.07495 -80.16049 19 ft 3 kts 269°
2026-05-03 21:29 26.07495 -80.16088 20 ft 6 kts 271°
2026-05-03 21:29 26.07496 -80.16123 20 ft 0 kts 271°
2026-05-03 21:29 26.07496 -80.16129 20 ft 2 kts 271°
2026-05-03 21:30 26.07496 -80.16132 20 ft 0 kts 271°
2026-05-03 21:30 26.07496 -80.16133 20 ft 1 kts 271°
2026-05-03 21:30 26.07496 -80.16139 20 ft 1 kts 271°
2026-05-03 21:31 26.07496 -80.16157 20 ft 7 kts 269°
2026-05-03 21:31 26.07497 -80.16188 20 ft 1 kts 269°
2026-05-03 21:32 26.07497 -80.16189 20 ft 0 kts 269°
2026-05-03 21:32 26.07496 -80.16229 19 ft 7 kts 269°
2026-05-03 21:33 26.07496 -80.16246 19 ft 3 kts 269°
2026-05-03 21:33 26.07496 -80.16258 19 ft 0 kts 270°
2026-05-03 21:33 26.07496 -80.16270 19 ft 3 kts 271°
2026-05-03 21:33 26.07496 -80.16277 19 ft 0 kts 271°
2026-05-03 21:34 26.07495 -80.16280 19 ft 0 kts 262°
2026-05-03 21:34 26.07496 -80.16295 18 ft 4 kts 271°
2026-05-03 21:34 26.07497 -80.16319 18 ft 1 kts 270°
2026-05-03 21:35 26.07497 -80.16320 18 ft 0 kts 270°
2026-05-03 21:35 26.07497 -80.16321 18 ft 0 kts 270°
2026-05-03 21:38 26.07497 -80.16322 18 ft 1 kts 270°
2026-05-03 21:38 26.07497 -80.16336 18 ft 1 kts 270°
2026-05-03 21:39 26.07497 -80.16337 18 ft 0 kts 270°
2026-05-03 21:39 26.07497 -80.16344 18 ft 0 kts 270°
2026-05-03 21:39 26.07497 -80.16348 18 ft 0 kts 270°
2026-05-03 21:39 26.07497 -80.16350 18 ft 1 kts 270°
2026-05-03 21:40 26.07497 -80.16359 18 ft 0 kts 270°
2026-05-03 21:40 26.07497 -80.16362 18 ft 0 kts 270°
2026-05-03 21:40 26.07497 -80.16363 18 ft 0 kts 271°
2026-05-03 21:41 26.07497 -80.16367 18 ft 1 kts 271°
2026-05-03 21:41 26.07497 -80.16371 18 ft 0 kts 271°
2026-05-03 21:43 26.07497 -80.16375 18 ft 1 kts 271°
2026-05-03 21:44 26.07497 -80.16412 18 ft 1 kts 270°
2026-05-03 21:44 26.07497 -80.16414 18 ft 0 kts 270°
2026-05-03 21:45 26.07497 -80.16419 18 ft 0 kts 270°
2026-05-03 21:46 26.07497 -80.16424 18 ft 0 kts 270°
2026-05-03 21:46 26.07497 -80.16427 18 ft 1 kts 270°
2026-05-03 21:46 26.07497 -80.16439 18 ft 2 kts 270°
2026-05-03 21:46 26.07498 -80.16464 19 ft 4 kts 270°
2026-05-03 21:47 26.07498 -80.16495 19 ft 4 kts 272°
2026-05-03 21:47 26.07521 -80.16521 19 ft 6 kts 327°
2026-05-03 21:47 26.07550 -80.16548 18 ft 7 kts 311°
2026-05-03 21:47 26.07575 -80.16560 17 ft 0 kts 351°
2026-05-03 21:49 26.07585 -80.16561 17 ft 0 kts 356°
2026-05-03 21:50 26.07599 -80.16562 17 ft 4 kts 357°
2026-05-03 21:51 26.07643 -80.16563 16 ft 8 kts 359°
2026-05-03 21:51 26.07686 -80.16554 16 ft 6 kts 47°
2026-05-03 21:51 26.07692 -80.16519 17 ft 0 kts 81°
2026-05-03 21:52 26.07692 -80.16517 17 ft 1 kts 81°
2026-05-03 21:53 26.07695 -80.16346 21 ft 57 kts 92°
2026-05-03 21:53 26.07691 -80.15652 12 ft 119 kts 90°
2026-05-03 21:53 26.07669 -80.14583 219 ft 142 kts 86°
2026-05-03 21:53 26.07678 -80.13529 943 ft 141 kts 85°
2026-05-03 21:54 26.07705 -80.12389 1588 ft 153 kts 87°
2026-05-03 21:54 26.07734 -80.11137 2149 ft 172 kts 87°
2026-05-03 21:54 26.07770 -80.09748 2702 ft 182 kts 89°
2026-05-03 21:54 26.07786 -80.08333 3070 ft 187 kts 90°
2026-05-03 21:55 26.07782 -80.06844 3325 ft 198 kts 90°
2026-05-03 21:55 26.07786 -80.05264 3554 ft 213 kts 90°
2026-05-03 21:55 26.07802 -80.03515 3700 ft 242 kts 89°
2026-05-03 21:55 26.07848 -80.01510 3904 ft 275 kts 83°
2026-05-03 21:56 26.08544 -79.99523 4706 ft 277 kts 53°
2026-05-03 21:56 26.09697 -79.97823 5693 ft 276 kts 51°
2026-05-03 21:56 26.10912 -79.96036 5998 ft 304 kts 51°
2026-05-03 21:56 26.12176 -79.94167 6032 ft 298 kts 51°
2026-05-03 21:57 26.13473 -79.92305 5244 ft 312 kts 51°
2026-05-03 21:57 26.14782 -79.90345 4779 ft 315 kts 53°
2026-05-03 21:57 26.16017 -79.88388 4647 ft 304 kts 54°
2026-05-03 21:57 26.17203 -79.86488 4522 ft 293 kts 54°
2026-05-03 21:58 26.18353 -79.84669 4387 ft 284 kts 53°
2026-05-03 21:58 26.19488 -79.82895 4157 ft 279 kts 53°
2026-05-03 21:58 26.20616 -79.81148 4014 ft 276 kts 53°
2026-05-03 21:58 26.21746 -79.79412 4000 ft 276 kts 53°
2026-05-03 21:59 26.22859 -79.77712 4003 ft 276 kts 53°
2026-05-03 21:59 26.23993 -79.75979 4003 ft 276 kts 53°
2026-05-03 21:59 26.25122 -79.74251 4013 ft 275 kts 53°
2026-05-03 21:59 26.26254 -79.72514 4611 ft 280 kts 53°
2026-05-03 22:00 26.27436 -79.70765 5508 ft 284 kts 48°
2026-05-03 22:00 26.28847 -79.69184 6444 ft 290 kts 38°
2026-05-03 22:00 26.30489 -79.67852 7430 ft 294 kts 28°
2026-05-03 22:00 26.32306 -79.66813 8283 ft 296 kts 18°
2026-05-03 22:01 26.34264 -79.66063 9090 ft 299 kts 13°
2026-05-03 22:01 26.36268 -79.65348 9924 ft 304 kts 13°
2026-05-03 22:01 26.38301 -79.64620 10632 ft 309 kts 13°
2026-05-03 22:01 26.40360 -79.63877 11342 ft 313 kts 13°
2026-05-03 22:02 26.42453 -79.63120 12057 ft 317 kts 13°
2026-05-03 22:02 26.44568 -79.62353 12766 ft 322 kts 14°
2026-05-03 22:02 26.46704 -79.61576 13467 ft 326 kts 13°
2026-05-03 22:02 26.48869 -79.60785 14125 ft 330 kts 13°
2026-05-03 22:03 26.51064 -79.59982 14736 ft 334 kts 13°
2026-05-03 22:03 26.53285 -79.59172 15345 ft 337 kts 13°
2026-05-03 22:03 26.55527 -79.58357 15964 ft 341 kts 13°
2026-05-03 22:03 26.57799 -79.57535 16553 ft 345 kts 13°
2026-05-03 22:04 26.60093 -79.56703 17146 ft 349 kts 12°
2026-05-03 22:04 26.62414 -79.55855 17749 ft 353 kts 12°
2026-05-03 22:04 26.64765 -79.54997 18335 ft 356 kts 12°
2026-05-03 22:04 26.67139 -79.54130 18836 ft 360 kts 12°
2026-05-03 22:05 26.69494 -79.53274 19329 ft 364 kts 12°
2026-05-03 22:05 26.71920 -79.52392 19834 ft 368 kts 12°
2026-05-03 22:05 26.74364 -79.51502 20328 ft 372 kts 12°
2026-05-03 22:05 26.76870 -79.50586 20805 ft 376 kts 12°
2026-05-03 22:06 26.79336 -79.49685 21282 ft 379 kts 12°
2026-05-03 22:06 26.81854 -79.48764 21743 ft 383 kts 12°
2026-05-03 22:06 26.84408 -79.47829 22207 ft 386 kts 12°
2026-05-03 22:06 26.86974 -79.46891 22662 ft 390 kts 12°
2026-05-03 22:07 26.89562 -79.45945 23124 ft 394 kts 12°
2026-05-03 22:07 26.92178 -79.44988 23578 ft 397 kts 12°
2026-05-03 22:07 26.94815 -79.44022 23959 ft 401 kts 11°
2026-05-03 22:07 26.97479 -79.43049 24347 ft 404 kts 11°
2026-05-03 22:08 27.00159 -79.42069 24739 ft 406 kts 11°
2026-05-03 22:08 27.02859 -79.41080 25129 ft 409 kts 11°
2026-05-03 22:08 27.05594 -79.40079 25349 ft 418 kts 11°
2026-05-03 22:08 27.08395 -79.39055 25474 ft 429 kts 11°
2026-05-03 22:09 27.11265 -79.38002 25591 ft 440 kts 11°
2026-05-03 22:09 27.14218 -79.36916 25719 ft 451 kts 12°
2026-05-03 22:09 27.17234 -79.35805 25840 ft 461 kts 12°
2026-05-03 22:10 27.23436 -79.33520 26245 ft 475 kts 12°
2026-05-03 22:10 27.26592 -79.32351 26570 ft 479 kts 12°
2026-05-03 22:10 27.29758 -79.31178 26904 ft 481 kts 12°
2026-05-03 22:10 27.32953 -79.29995 27241 ft 484 kts 12°
2026-05-03 22:11 27.36174 -79.28807 27602 ft 487 kts 11°
2026-05-03 22:11 27.39404 -79.27618 27972 ft 490 kts 11°
2026-05-03 22:11 27.42656 -79.26419 28332 ft 493 kts 11°
2026-05-03 22:11 27.45924 -79.25213 28685 ft 496 kts 11°
2026-05-03 22:12 27.49207 -79.23999 29027 ft 499 kts 11°
2026-05-03 22:12 27.52520 -79.22773 29379 ft 501 kts 11°
2026-05-03 22:12 27.55841 -79.21540 29709 ft 504 kts 11°
2026-05-03 22:12 27.59186 -79.20298 30043 ft 507 kts 11°
2026-05-03 22:13 27.62536 -79.19052 30427 ft 508 kts 11°
2026-05-03 22:13 27.65888 -79.17804 30836 ft 507 kts 11°
2026-05-03 22:13 27.69241 -79.16556 31278 ft 507 kts 11°
2026-05-03 22:13 27.72582 -79.15317 31714 ft 506 kts 11°
2026-05-03 22:14 27.75935 -79.14073 32161 ft 506 kts 11°
2026-05-03 22:14 27.79271 -79.12832 32581 ft 505 kts 10°
2026-05-03 22:14 27.82612 -79.11588 33007 ft 505 kts 10°
2026-05-03 22:14 27.85950 -79.10342 33441 ft 504 kts 10°
2026-05-03 22:15 27.89275 -79.09101 33886 ft 503 kts
2026-05-03 22:15 27.92600 -79.07859 34288 ft 503 kts
2026-05-03 22:15 27.95883 -79.06630 34646 ft 503 kts
2026-05-03 22:15 27.99203 -79.05387 34982 ft 503 kts
2026-05-03 22:16 28.02518 -79.04147 35314 ft 502 kts
2026-05-03 22:16 28.05851 -79.02904 35632 ft 503 kts
2026-05-03 22:16 28.09170 -79.01664 35939 ft 503 kts
2026-05-03 22:16 28.12491 -79.00420 36247 ft 503 kts
2026-05-03 22:17 28.15811 -78.99177 36545 ft 503 kts
2026-05-03 22:17 28.19153 -78.97922 36834 ft 504 kts
2026-05-03 22:17 28.22487 -78.96669 37025 ft 505 kts
2026-05-03 22:18 28.28064 -78.94583 37071 ft 510 kts
2026-05-03 22:18 28.34798 -78.92052 37073 ft 511 kts
2026-05-03 22:19 28.41555 -78.89494 37070 ft 511 kts
2026-05-03 22:19 28.48300 -78.86946 37068 ft 511 kts
2026-05-03 22:20 28.55051 -78.84405 37080 ft 511 kts
2026-05-03 22:20 28.61808 -78.81851 37088 ft 512 kts
2026-05-03 22:21 28.68575 -78.79289 37092 ft 512 kts
2026-05-03 22:21 28.75340 -78.76721 37099 ft 512 kts
2026-05-03 22:22 28.82098 -78.74150 37105 ft 512 kts
2026-05-03 22:22 28.88845 -78.71581 37105 ft 512 kts
2026-05-03 22:23 28.95608 -78.69024 37108 ft 511 kts
2026-05-03 22:23 29.02363 -78.66455 37115 ft 512 kts
2026-05-03 22:24 29.09108 -78.63866 37116 ft 512 kts
2026-05-03 22:24 29.15865 -78.61275 37123 ft 511 kts
2026-05-03 22:25 29.22683 -78.58675 37098 ft 523 kts
2026-05-03 22:25 29.29584 -78.56047 37096 ft 528 kts
2026-05-03 22:26 29.36551 -78.53358 37104 ft 528 kts
2026-05-03 22:26 29.43567 -78.50652 37102 ft 528 kts
2026-05-03 22:26 29.47040 -78.49593 37102 ft 516 kts 360°
2026-05-03 22:27 29.50552 -78.49147 37105 ft 501 kts 350°
2026-05-03 22:27 29.53990 -78.49290 37107 ft 488 kts 342°
2026-05-03 22:27 29.57358 -78.49663 37112 ft 488 kts 343°
2026-05-03 22:28 29.64142 -78.50407 37118 ft 489 kts 343°
2026-05-03 22:28 29.70906 -78.51147 37122 ft 490 kts 343°
2026-05-03 22:29 29.77701 -78.51873 37122 ft 490 kts 343°
2026-05-03 22:29 29.84503 -78.52599 37130 ft 491 kts 343°
2026-05-03 22:30 29.91297 -78.53336 37123 ft 491 kts 343°
2026-05-03 22:30 29.98108 -78.54083 37137 ft 491 kts 343°
2026-05-03 22:31 30.04915 -78.54823 37124 ft 492 kts 343°
2026-05-03 22:31 30.11738 -78.55564 37133 ft 492 kts 343°
2026-05-03 22:31 30.15183 -78.55776 37124 ft 504 kts 351°
2026-05-03 22:32 30.18716 -78.55414 37128 ft 513 kts 356°
2026-05-03 22:32 30.25819 -78.54395 37129 ft 514 kts 357°
2026-05-03 22:33 30.32916 -78.53349 37131 ft 515 kts 357°
2026-05-03 22:33 30.40021 -78.52317 37138 ft 515 kts 356°
2026-05-03 22:34 30.47133 -78.51260 37142 ft 516 kts 357°
2026-05-03 22:34 30.54252 -78.50107 37141 ft 517 kts 358°
2026-05-03 22:35 30.61384 -78.48910 37142 ft 518 kts 358°
2026-05-03 22:35 30.68529 -78.47728 37147 ft 518 kts 358°
2026-05-03 22:36 30.75663 -78.46574 37144 ft 518 kts 358°
2026-05-03 22:36 30.82808 -78.45418 37152 ft 519 kts 358°
2026-05-03 22:37 30.89955 -78.44255 37151 ft 519 kts 358°
2026-05-03 22:37 30.97109 -78.43082 37151 ft 519 kts 358°
2026-05-03 22:38 31.04277 -78.41914 37148 ft 520 kts 358°
2026-05-03 22:38 31.11447 -78.40747 37150 ft 520 kts 358°
2026-05-03 22:39 31.18624 -78.39573 37148 ft 521 kts 358°
2026-05-03 22:39 31.25791 -78.38390 37151 ft 521 kts 358°
2026-05-03 22:40 31.32986 -78.37199 37156 ft 522 kts 358°
2026-05-03 22:40 31.40178 -78.36012 37154 ft 522 kts 358°
2026-05-03 22:41 31.47337 -78.34830 37159 ft 523 kts 358°
2026-05-03 22:41 31.54584 -78.33630 37154 ft 524 kts 358°
2026-05-03 22:42 31.61773 -78.32442 37151 ft 525 kts 358°
2026-05-03 22:42 31.69060 -78.31234 37149 ft 526 kts 358°
2026-05-03 22:43 31.76262 -78.30040 37144 ft 527 kts 357°
2026-05-03 22:43 31.83537 -78.28836 37151 ft 528 kts 357°
2026-05-03 22:44 31.90811 -78.27627 37148 ft 529 kts 357°
2026-05-03 22:44 31.98113 -78.26408 37155 ft 530 kts 357°
2026-05-03 22:45 32.05419 -78.25200 37160 ft 530 kts 356°
2026-05-03 22:45 32.12715 -78.24123 37162 ft 529 kts 355°
2026-05-03 22:46 32.20040 -78.23102 37163 ft 530 kts 355°
2026-05-03 22:46 32.27381 -78.22046 37165 ft 531 kts 356°
2026-05-03 22:47 32.34731 -78.20968 37160 ft 532 kts 356°
2026-05-03 22:47 32.42080 -78.19880 37163 ft 533 kts 356°
2026-05-03 22:48 32.49448 -78.18795 37169 ft 533 kts 355°
2026-05-03 22:48 32.56804 -78.17717 37172 ft 533 kts 355°
2026-05-03 22:49 32.64178 -78.16643 37175 ft 533 kts 355°
2026-05-03 22:49 32.71530 -78.15561 37183 ft 534 kts 355°
2026-05-03 22:50 32.78876 -78.14465 37178 ft 534 kts 355°
2026-05-03 22:50 32.86249 -78.13371 37184 ft 534 kts 355°
2026-05-03 22:51 32.93643 -78.12279 37181 ft 534 kts 355°
2026-05-03 22:51 33.01003 -78.11189 37188 ft 534 kts 355°
2026-05-03 22:52 33.08393 -78.10084 37188 ft 534 kts 355°
2026-05-03 22:52 33.15763 -78.08975 37178 ft 534 kts 355°
2026-05-03 22:53 33.23124 -78.07875 37173 ft 534 kts 355°
2026-05-03 22:53 33.30495 -78.06771 37164 ft 534 kts 355°
2026-05-03 22:54 33.37873 -78.05661 37159 ft 534 kts 355°
2026-05-03 22:54 33.45244 -78.04552 37167 ft 534 kts 355°
2026-05-03 22:55 33.52624 -78.03446 37163 ft 534 kts 355°
2026-05-03 22:55 33.59991 -78.02340 37167 ft 534 kts 355°
2026-05-03 22:56 33.67361 -78.01225 37155 ft 534 kts 355°
2026-05-03 22:56 33.74740 -78.00109 37149 ft 533 kts 355°
2026-05-03 22:57 33.82102 -77.99004 37139 ft 533 kts 355°
2026-05-03 22:57 33.89402 -77.98097 37138 ft 523 kts 349°
2026-05-03 22:58 33.96673 -77.97825 37135 ft 522 kts 349°
2026-05-03 22:58 34.03941 -77.97566 37133 ft 522 kts 349°
2026-05-03 22:59 34.11214 -77.97310 37133 ft 523 kts 349°
2026-05-03 22:59 34.18474 -77.97048 37137 ft 523 kts 349°
2026-05-03 23:00 34.25746 -77.96787 37135 ft 523 kts 349°
2026-05-03 23:00 34.31806 -77.96572 37137 ft 523 kts 349°
2026-05-03 23:01 34.39084 -77.96311 37129 ft 523 kts 349°
2026-05-03 23:01 34.46361 -77.96050 37129 ft 523 kts 350°
2026-05-03 23:02 34.53642 -77.95782 37125 ft 523 kts 350°
2026-05-03 23:02 34.60934 -77.95513 37128 ft 524 kts 350°
2026-05-03 23:03 34.68219 -77.95244 37125 ft 524 kts 350°
2026-05-03 23:03 34.75521 -77.94976 37127 ft 524 kts 350°
2026-05-03 23:04 34.82756 -77.94731 37137 ft 523 kts 349°
2026-05-03 23:04 34.90043 -77.94588 37261 ft 523 kts 348°
2026-05-03 23:05 34.97329 -77.94453 37129 ft 526 kts 351°
2026-05-03 23:05 35.04656 -77.93997 37115 ft 526 kts 352°
2026-05-03 23:06 35.11960 -77.93575 37113 ft 524 kts 350°
2026-05-03 23:06 35.19247 -77.93307 37123 ft 523 kts 349°
2026-05-03 23:07 35.26509 -77.93092 37135 ft 522 kts 349°
2026-05-03 23:07 35.33700 -77.93081 37136 ft 512 kts 344°
2026-05-03 23:08 35.40858 -77.93668 37136 ft 512 kts 343°
2026-05-03 23:08 35.47957 -77.94254 37136 ft 511 kts 343°
2026-05-03 23:09 35.54995 -77.94844 37136 ft 511 kts 343°
2026-05-03 23:09 35.62085 -77.95435 37136 ft 510 kts 344°
2026-05-03 23:10 35.69172 -77.96017 37137 ft 510 kts 344°
2026-05-03 23:10 35.76259 -77.96602 37133 ft 509 kts 344°
2026-05-03 23:11 35.83332 -77.97187 37131 ft 509 kts 344°
2026-05-03 23:11 35.90412 -77.97778 37129 ft 509 kts 344°
2026-05-03 23:12 35.97475 -77.98373 37140 ft 508 kts 344°
2026-05-03 23:12 36.04541 -77.98969 37144 ft 508 kts 344°
2026-05-03 23:13 36.11557 -77.99564 37143 ft 508 kts 344°
2026-05-03 23:13 36.18607 -78.00157 37140 ft 508 kts 344°
2026-05-03 23:14 36.25664 -78.00744 37121 ft 507 kts 344°
2026-05-03 23:14 36.32711 -78.01342 37121 ft 507 kts 344°
2026-05-03 23:15 36.39846 -78.01262 37134 ft 529 kts 359°
2026-05-03 23:15 36.47120 -77.99386 37141 ft 534 kts
2026-05-03 23:16 36.54373 -77.97475 37157 ft 533 kts
2026-05-03 23:16 36.61641 -77.95568 37169 ft 533 kts
2026-05-03 23:17 36.68902 -77.93659 37173 ft 533 kts
2026-05-03 23:17 36.76146 -77.91756 37119 ft 532 kts
2026-05-03 23:18 36.83395 -77.89854 37122 ft 532 kts
2026-05-03 23:18 36.90635 -77.87942 37121 ft 531 kts
2026-05-03 23:19 36.97874 -77.86025 37102 ft 531 kts
2026-05-03 23:19 37.05094 -77.84111 37102 ft 530 kts
2026-05-03 23:20 37.12315 -77.82199 37102 ft 530 kts
2026-05-03 23:20 37.19489 -77.80294 37106 ft 529 kts
2026-05-03 23:21 37.26684 -77.78371 37125 ft 529 kts
2026-05-03 23:21 37.33874 -77.76439 37118 ft 528 kts
2026-05-03 23:22 37.44647 -77.73549 37114 ft 527 kts
2026-05-03 23:22 37.51681 -77.71116 37116 ft 541 kts 15°
2026-05-03 23:23 37.55051 -77.68892 37114 ft 552 kts 27°
2026-05-03 23:23 37.58177 -77.66036 37115 ft 557 kts 33°
2026-05-03 23:23 37.64233 -77.60044 37104 ft 556 kts 31°
2026-05-03 23:24 37.70307 -77.54420 37092 ft 555 kts 30°
2026-05-03 23:24 37.76543 -77.48679 37103 ft 555 kts 31°
2026-05-03 23:25 37.82726 -77.42820 37096 ft 556 kts 31°
2026-05-03 23:25 37.88889 -77.36903 37100 ft 555 kts 31°
2026-05-03 23:26 37.95051 -77.30997 37097 ft 555 kts 31°
2026-05-03 23:26 37.98120 -77.28060 37494 ft 545 kts 30°
2026-05-03 23:26 38.00959 -77.25307 38525 ft 518 kts 30°
2026-05-03 23:27 38.03761 -77.22559 39375 ft 502 kts 30°
2026-05-03 23:27 38.06473 -77.19875 40176 ft 487 kts 30°
2026-05-03 23:27 38.09094 -77.17257 40982 ft 470 kts 31°
2026-05-03 23:27 38.11604 -77.14725 41767 ft 453 kts 31°
2026-05-03 23:28 38.14013 -77.12269 42525 ft 434 kts 31°
2026-05-03 23:28 38.16303 -77.09907 43195 ft 416 kts 32°
2026-05-03 23:28 38.18531 -77.07592 43381 ft 413 kts 32°
2026-05-03 23:28 38.20795 -77.05248 42876 ft 427 kts 32°
2026-05-03 23:29 38.23168 -77.02822 41855 ft 454 kts 29°
2026-05-03 23:29 38.25827 -77.00394 40589 ft 482 kts 24°
2026-05-03 23:29 38.28685 -76.98001 39382 ft 501 kts 25°
2026-05-03 23:29 38.31646 -76.95595 38563 ft 509 kts 25°
2026-05-03 23:30 38.34592 -76.93092 37583 ft 508 kts 27°
2026-05-03 23:30 38.37310 -76.90590 37197 ft 491 kts 28°
2026-05-03 23:30 38.39964 -76.87982 36996 ft 470 kts 30°
2026-05-03 23:30 38.42447 -76.85456 37058 ft 446 kts 30°
2026-05-03 23:31 38.47219 -76.80633 37057 ft 433 kts 28°
2026-05-03 23:31 38.52072 -76.75922 37057 ft 446 kts 28°
2026-05-03 23:32 38.57129 -76.71060 37051 ft 463 kts 28°
2026-05-03 23:32 38.62347 -76.65990 37049 ft 479 kts 29°
2026-05-03 23:33 38.67614 -76.60819 36980 ft 495 kts 30°
2026-05-03 23:33 38.70314 -76.58153 36583 ft 494 kts 30°
2026-05-03 23:33 38.73011 -76.55479 36248 ft 488 kts 29°
2026-05-03 23:34 38.75681 -76.52832 35888 ft 482 kts 29°
2026-05-03 23:34 38.78324 -76.50220 35525 ft 478 kts 28°
2026-05-03 23:34 38.80958 -76.47622 35163 ft 473 kts 28°
2026-05-03 23:34 38.83558 -76.45064 34809 ft 469 kts 28°
2026-05-03 23:35 38.86112 -76.42551 34453 ft 465 kts 27°
2026-05-03 23:35 38.88666 -76.40033 34096 ft 461 kts 27°
2026-05-03 23:35 38.91199 -76.37533 33663 ft 457 kts 27°
2026-05-03 23:35 38.93697 -76.35065 33247 ft 452 kts 27°
2026-05-03 23:36 38.96180 -76.32608 32821 ft 448 kts 27°
2026-05-03 23:36 38.98639 -76.30172 32423 ft 444 kts 27°
2026-05-03 23:36 39.01076 -76.27753 32023 ft 440 kts 27°
2026-05-03 23:36 39.03488 -76.25350 31646 ft 435 kts 27°
2026-05-03 23:37 39.05863 -76.22984 31031 ft 428 kts 27°
2026-05-03 23:37 39.07290 -76.21565 30627 ft 424 kts 27°
2026-05-03 23:37 39.09602 -76.19265 29972 ft 417 kts 27°
2026-05-03 23:37 39.11882 -76.16996 29227 ft 410 kts 27°
2026-05-03 23:38 39.14128 -76.14763 28488 ft 405 kts 27°
2026-05-03 23:38 39.16336 -76.12562 27784 ft 399 kts 27°
2026-05-03 23:38 39.18512 -76.10393 27074 ft 394 kts 28°
2026-05-03 23:38 39.20669 -76.08238 26376 ft 388 kts 28°
2026-05-03 23:39 39.22794 -76.06112 25684 ft 383 kts 28°
2026-05-03 23:39 39.24881 -76.04024 25006 ft 379 kts 28°
2026-05-03 23:39 39.26952 -76.01954 24338 ft 374 kts 29°
2026-05-03 23:39 39.29000 -75.99898 23671 ft 370 kts 29°
2026-05-03 23:40 39.31023 -75.97864 22910 ft 366 kts 29°
2026-05-03 23:40 39.33025 -75.95857 22176 ft 362 kts 30°
2026-05-03 23:40 39.35001 -75.93872 21454 ft 358 kts 30°
2026-05-03 23:40 39.36936 -75.91927 20767 ft 353 kts 30°
2026-05-03 23:41 39.38725 -75.90126 20221 ft 348 kts 30°
2026-05-03 23:41 39.40639 -75.88202 20024 ft 349 kts 30°
2026-05-03 23:41 39.42560 -75.86272 20010 ft 349 kts 30°
2026-05-03 23:41 39.44477 -75.84349 20017 ft 351 kts 30°
2026-05-03 23:42 39.45757 -75.83065 20014 ft 350 kts 31°
2026-05-03 23:42 39.48325 -75.80472 20013 ft 350 kts 31°
2026-05-03 23:42 39.49606 -75.79179 20012 ft 350 kts 31°
2026-05-03 23:42 39.51520 -75.77244 20012 ft 350 kts 31°
2026-05-03 23:43 39.53442 -75.75301 20010 ft 350 kts 31°
2026-05-03 23:43 39.55362 -75.73357 20011 ft 350 kts 31°
2026-05-03 23:43 39.57268 -75.71419 19778 ft 347 kts 31°
2026-05-03 23:43 39.59165 -75.69488 19401 ft 345 kts 31°
2026-05-03 23:44 39.61048 -75.67571 19038 ft 343 kts 31°
2026-05-03 23:44 39.62919 -75.65666 18690 ft 341 kts 31°
2026-05-03 23:44 39.64785 -75.63766 18332 ft 339 kts 31°
2026-05-03 23:44 39.66635 -75.61886 17938 ft 337 kts 31°
2026-05-03 23:45 39.68460 -75.59999 17561 ft 336 kts 33°
2026-05-03 23:45 39.70218 -75.58008 17200 ft 335 kts 36°
2026-05-03 23:45 39.71919 -75.55964 16842 ft 333 kts 37°
2026-05-03 23:45 39.73595 -75.53894 16494 ft 331 kts 37°
2026-05-03 23:46 39.75255 -75.51836 16146 ft 328 kts 37°
2026-05-03 23:46 39.76903 -75.49806 15804 ft 326 kts 37°
2026-05-03 23:46 39.78502 -75.47854 15482 ft 323 kts 37°
2026-05-03 23:46 39.80137 -75.45866 15164 ft 320 kts 37°
2026-05-03 23:47 39.81767 -75.43891 14839 ft 318 kts 37°
2026-05-03 23:47 39.83378 -75.41940 14531 ft 315 kts 37°
2026-05-03 23:47 39.84963 -75.40021 14230 ft 313 kts 37°
2026-05-03 23:47 39.86547 -75.38108 13930 ft 310 kts 37°
2026-05-03 23:48 39.88119 -75.36206 13624 ft 307 kts 37°
2026-05-03 23:48 39.89678 -75.34318 13285 ft 305 kts 37°
2026-05-03 23:48 39.91221 -75.32446 12963 ft 302 kts 37°
2026-05-03 23:48 39.92748 -75.30593 12634 ft 299 kts 37°
2026-05-03 23:49 39.94266 -75.28754 12303 ft 297 kts 37°
2026-05-03 23:49 39.95773 -75.26927 11982 ft 295 kts 37°
2026-05-03 23:49 39.97263 -75.25115 11666 ft 292 kts 37°
2026-05-03 23:49 39.98745 -75.23308 11348 ft 290 kts 37°
2026-05-03 23:50 40.00217 -75.21516 11027 ft 288 kts 37°
2026-05-03 23:50 40.01677 -75.19740 10714 ft 286 kts 37°
2026-05-03 23:50 40.03123 -75.17978 10399 ft 285 kts 37°
2026-05-03 23:50 40.04574 -75.16209 10094 ft 283 kts 37°
2026-05-03 23:51 40.06006 -75.14462 9772 ft 281 kts 37°
2026-05-03 23:51 40.07432 -75.12721 9414 ft 280 kts 37°
2026-05-03 23:51 40.08832 -75.11008 9045 ft 280 kts 37°
2026-05-03 23:51 40.10251 -75.09273 8672 ft 279 kts 37°
2026-05-03 23:52 40.11664 -75.07545 8332 ft 279 kts 37°
2026-05-03 23:52 40.13084 -75.05809 8021 ft 277 kts 38°
2026-05-03 23:52 40.14493 -75.04084 8001 ft 279 kts 37°
2026-05-03 23:52 40.15909 -75.02350 8000 ft 280 kts 38°
2026-05-03 23:53 40.17328 -75.00606 8002 ft 280 kts 38°
2026-05-03 23:53 40.18748 -74.98858 8000 ft 280 kts 38°
2026-05-03 23:53 40.20150 -74.97135 7996 ft 280 kts 38°
2026-05-03 23:53 40.21587 -74.95370 7969 ft 280 kts 38°
2026-05-03 23:54 40.23009 -74.93624 7974 ft 280 kts 38°
2026-05-03 23:54 40.24413 -74.91902 7969 ft 280 kts 38°
2026-05-03 23:54 40.25825 -74.90143 7972 ft 281 kts 39°
2026-05-03 23:54 40.27100 -74.88427 7971 ft 282 kts 41°
2026-05-03 23:55 40.28439 -74.86543 7971 ft 282 kts 42°
2026-05-03 23:55 40.29763 -74.84648 7972 ft 282 kts 42°
2026-05-03 23:55 40.31088 -74.82755 7972 ft 282 kts 42°
2026-05-03 23:55 40.32424 -74.80851 7974 ft 282 kts 42°
2026-05-03 23:56 40.33756 -74.78962 7973 ft 283 kts 41°
2026-05-03 23:56 40.35075 -74.77097 7972 ft 282 kts 41°
2026-05-03 23:56 40.36411 -74.75214 7972 ft 283 kts 41°
2026-05-03 23:56 40.37754 -74.73321 7973 ft 283 kts 41°
2026-05-03 23:57 40.39095 -74.71431 7973 ft 283 kts 41°
2026-05-03 23:57 40.40437 -74.69541 7974 ft 283 kts 41°
2026-05-03 23:57 40.41881 -74.67831 7971 ft 277 kts 28°
2026-05-03 23:57 40.43565 -74.66694 7946 ft 269 kts 13°
2026-05-03 23:58 40.45362 -74.66122 7946 ft 266 kts
2026-05-03 23:58 40.47177 -74.65646 7948 ft 266 kts
2026-05-03 23:58 40.48739 -74.65229 7942 ft 265 kts
2026-05-03 23:58 40.50538 -74.64747 7939 ft 265 kts
2026-05-03 23:59 40.52354 -74.64261 7942 ft 265 kts
2026-05-03 23:59 40.54164 -74.63775 7945 ft 265 kts
2026-05-03 23:59 40.55974 -74.63291 7942 ft 265 kts
2026-05-03 23:59 40.57751 -74.62662 7947 ft 270 kts 19°
2026-05-04 00:00 40.59282 -74.61148 7935 ft 283 kts 45°
2026-05-04 00:00 40.60407 -74.59036 7921 ft 278 kts 51°
2026-05-04 00:00 40.61451 -74.56948 7813 ft 270 kts 51°
2026-05-04 00:00 40.62460 -74.54916 7668 ft 262 kts 51°
2026-05-04 00:01 40.63448 -74.52924 7548 ft 254 kts 51°
2026-05-04 00:01 40.64399 -74.51014 7420 ft 247 kts 50°
2026-05-04 00:01 40.65239 -74.49330 7278 ft 242 kts 50°
2026-05-04 00:01 40.66162 -74.47487 7044 ft 239 kts 50°
2026-05-04 00:02 40.67074 -74.45671 6764 ft 239 kts 51°
2026-05-04 00:02 40.67983 -74.43857 6482 ft 239 kts 51°
2026-05-04 00:02 40.68892 -74.42036 6188 ft 238 kts 51°
2026-05-04 00:02 40.69802 -74.40213 5901 ft 238 kts 51°
2026-05-04 00:03 40.70711 -74.38390 5618 ft 237 kts 51°
2026-05-04 00:03 40.71620 -74.36570 5342 ft 236 kts 51°
2026-05-04 00:03 40.72511 -74.34786 5054 ft 236 kts 51°
2026-05-04 00:03 40.73409 -74.32989 4758 ft 235 kts 51°
2026-05-04 00:04 40.74303 -74.31194 4459 ft 234 kts 51°
2026-05-04 00:04 40.75198 -74.29400 4153 ft 234 kts 51°
2026-05-04 00:04 40.76088 -74.27615 3894 ft 233 kts 51°
2026-05-04 00:04 40.76979 -74.25830 3602 ft 233 kts 52°
2026-05-04 00:05 40.77865 -74.24052 3325 ft 232 kts 52°
2026-05-04 00:05 40.78704 -74.22364 3090 ft 230 kts 51°
2026-05-04 00:05 40.79556 -74.20642 3002 ft 217 kts 52°
2026-05-04 00:05 40.80339 -74.19049 3020 ft 203 kts 51°
2026-05-04 00:06 40.81113 -74.17488 3002 ft 201 kts 51°
2026-05-04 00:06 40.81882 -74.15942 2995 ft 200 kts 51°
2026-05-04 00:06 40.82634 -74.14427 2999 ft 201 kts 51°
2026-05-04 00:06 40.83295 -74.12795 2987 ft 206 kts 73°
2026-05-04 00:07 40.83360 -74.10905 2778 ft 210 kts 100°
2026-05-04 00:07 40.82856 -74.09233 2439 ft 212 kts 126°
2026-05-04 00:07 40.81810 -74.07955 2176 ft 201 kts 159°
2026-05-04 00:07 40.80494 -74.07548 1998 ft 189 kts 188°
2026-05-04 00:08 40.79198 -74.07669 1877 ft 189 kts 181°
2026-05-04 00:08 40.77894 -74.07262 1797 ft 197 kts 163°
2026-05-04 00:08 40.76608 -74.06764 1652 ft 187 kts 173°
2026-05-04 00:08 40.75332 -74.06543 1501 ft 182 kts 184°
2026-05-04 00:09 40.74077 -74.06747 1516 ft 182 kts 203°
2026-05-04 00:09 40.73001 -74.07530 1566 ft 172 kts 229°
2026-05-04 00:09 40.72394 -74.08839 1915 ft 172 kts 257°
2026-05-04 00:09 40.72200 -74.10497 2478 ft 194 kts 267°
2026-05-04 00:10 40.72111 -74.12322 3250 ft 208 kts 269°
2026-05-04 00:10 40.72051 -74.14292 4000 ft 222 kts 270°
2026-05-04 00:10 40.72008 -74.16370 4776 ft 223 kts 270°
2026-05-04 00:10 40.71939 -74.18294 4985 ft 201 kts 271°
2026-05-04 00:11 40.71847 -74.20062 5006 ft 186 kts 269°
2026-05-04 00:11 40.71733 -74.21706 5014 ft 177 kts 269°
2026-05-04 00:11 40.71619 -74.23298 5017 ft 176 kts 268°
2026-05-04 00:11 40.71508 -74.24920 5012 ft 175 kts 269°
2026-05-04 00:12 40.71413 -74.26503 5012 ft 175 kts 269°
2026-05-04 00:12 40.71318 -74.28102 5020 ft 175 kts 269°
2026-05-04 00:12 40.71224 -74.29730 5013 ft 176 kts 269°
2026-05-04 00:12 40.71133 -74.31327 5014 ft 176 kts 269°
2026-05-04 00:13 40.71042 -74.32946 5016 ft 176 kts 269°
2026-05-04 00:13 40.70956 -74.34512 5018 ft 176 kts 270°
2026-05-04 00:13 40.70866 -74.36155 5020 ft 175 kts 270°
2026-05-04 00:13 40.70780 -74.37735 5014 ft 175 kts 269°
2026-05-04 00:14 40.70693 -74.39336 5010 ft 175 kts 270°
2026-05-04 00:14 40.70605 -74.40942 5012 ft 176 kts 270°
2026-05-04 00:14 40.70520 -74.42545 5009 ft 175 kts 269°
2026-05-04 00:14 40.70439 -74.44150 5018 ft 176 kts 269°
2026-05-04 00:15 40.70359 -74.45755 5012 ft 176 kts 270°
2026-05-04 00:15 40.70275 -74.47368 5011 ft 176 kts 270°
2026-05-04 00:15 40.70189 -74.48976 5020 ft 176 kts 270°
2026-05-04 00:15 40.70104 -74.50577 5016 ft 176 kts 270°
2026-05-04 00:16 40.70033 -74.51959 5013 ft 176 kts 270°
2026-05-04 00:16 40.70128 -74.53542 4997 ft 172 kts 295°
2026-05-04 00:16 40.70760 -74.54888 5014 ft 174 kts 306°
2026-05-04 00:16 40.71568 -74.56081 5015 ft 175 kts 313°
2026-05-04 00:17 40.72560 -74.56984 4979 ft 177 kts 337°
2026-05-04 00:17 40.73793 -74.57023 4781 ft 185 kts 12°
2026-05-04 00:17 40.74879 -74.56033 4502 ft 199 kts 46°
2026-05-04 00:17 40.75581 -74.54472 4436 ft 187 kts 60°
2026-05-04 00:18 40.76110 -74.53027 4393 ft 185 kts 57°
2026-05-04 00:18 40.76767 -74.51315 4206 ft 216 kts 57°
2026-05-04 00:18 40.77220 -74.50131 4171 ft 220 kts 59°
2026-05-04 00:18 40.77967 -74.47925 4168 ft 221 kts 62°
2026-05-04 00:19 40.78530 -74.46039 4201 ft 219 kts 65°
2026-05-04 00:19 40.79025 -74.44175 4200 ft 206 kts 67°
2026-05-04 00:19 40.79411 -74.42467 4233 ft 190 kts 69°
2026-05-04 00:19 40.79723 -74.40803 4195 ft 186 kts 73°
2026-05-04 00:20 40.79894 -74.39117 4106 ft 185 kts 82°
2026-05-04 00:20 40.79922 -74.37397 4000 ft 196 kts 88°
2026-05-04 00:20 40.79850 -74.35576 3916 ft 195 kts 92°
2026-05-04 00:20 40.79724 -74.33850 3850 ft 186 kts 94°
2026-05-04 00:21 40.79559 -74.32165 3740 ft 185 kts 97°
2026-05-04 00:21 40.79360 -74.30469 3597 ft 184 kts 96°
2026-05-04 00:21 40.79188 -74.28841 3492 ft 180 kts 96°
2026-05-04 00:21 40.78988 -74.27219 3393 ft 179 kts 98°
2026-05-04 00:22 40.78760 -74.25608 3304 ft 178 kts 97°
2026-05-04 00:22 40.78770 -74.23970 3200 ft 175 kts 78°
2026-05-04 00:22 40.78940 -74.22412 3091 ft 174 kts 78°
2026-05-04 00:22 40.79097 -74.20830 2987 ft 173 kts 79°
2026-05-04 00:23 40.79246 -74.19255 2839 ft 173 kts 79°
2026-05-04 00:23 40.79424 -74.17691 2720 ft 172 kts 77°
2026-05-04 00:23 40.79598 -74.16145 2587 ft 173 kts 78°
2026-05-04 00:23 40.79834 -74.14613 2523 ft 167 kts 71°
2026-05-04 00:24 40.80123 -74.13134 2480 ft 165 kts 71°
2026-05-04 00:24 40.80295 -74.11637 2406 ft 168 kts 88°
2026-05-04 00:24 40.79984 -74.10171 2251 ft 167 kts 124°
2026-05-04 00:24 40.79134 -74.09223 2098 ft 158 kts 161°
2026-05-04 00:25 40.78096 -74.08838 1993 ft 155 kts 174°
2026-05-04 00:25 40.77089 -74.08288 1754 ft 158 kts 156°
2026-05-04 00:25 40.76155 -74.07534 1505 ft 157 kts 150°
2026-05-04 00:25 40.75336 -74.06571 1264 ft 155 kts 147°
2026-05-04 00:26 40.74438 -74.05863 1167 ft 149 kts 166°
2026-05-04 00:26 40.73434 -74.05571 1067 ft 148 kts 180°
2026-05-04 00:26 40.72431 -74.05656 894 ft 142 kts 198°
2026-05-04 00:26 40.71525 -74.06117 700 ft 138 kts 212°
2026-05-04 00:27 40.70790 -74.06906 621 ft 136 kts 233°
2026-05-04 00:27 40.70328 -74.07990 566 ft 136 kts 252°
2026-05-04 00:27 40.70066 -74.09178 494 ft 137 kts 258°
2026-05-04 00:27 40.69916 -74.10401 525 ft 134 kts 264°
2026-05-04 00:28 40.69866 -74.11625 530 ft 133 kts 270°
2026-05-04 00:28 40.69918 -74.12837 481 ft 133 kts 276°
2026-05-04 00:28 40.70017 -74.14051 336 ft 134 kts 272°
2026-05-04 00:28 40.70088 -74.15263 124 ft 133 kts 273°
2026-05-04 00:29 40.70146 -74.16052 32 ft 124 kts 274°